Tracking 18980 objects as of 22-Feb-2018
HD Live streaming from Space Station
objects crossing your sky now

NTS 2

Track NTS 2 now!
NTS 2 is classified as:


NORAD ID: 10091
Int'l Code: 1977-053A
Perigee: 20,034.3 km
Apogee: 20,364.6 km
Inclination: 64.5 °
Period: 718.4 minutes
Semi major axis: 26570 km
RCS: 3.8343 m2 (large)
Launch date: June 23, 1977
Source: United States (US)
Launch site: AIR FORCE WESTERN TEST RANGE (AFWTR)
aabbcc
Your satellite tracking list
Your tracking list is empty




NASA's NSSDC Master Catalog

Two Line Element Set (TLE):
1 10091U 77053A   18053.22752601 -.00000029  00000-0  00000+0 0  9996
2 10091  64.5310  15.7402 0062150 234.0008 272.5761  2.00448959297797
Source of the keplerian elements: AFSPC